Grand Canyon, AZ

9:17 AM MST on July 23, 2016 (GMT -0700)
Grand Canyon National Park

Weather History for KGCN - October, 2011

Change the Weather History Date:

Saturday, October 22, 2011

  Actual Average Record
Temperature  
Mean Temperature 49 °F -  
Max Temperature 72 °F 57 °F 79 °F (2003)
Min Temperature 26 °F 26 °F 7 °F (1996)
Degree Days  
Heating Degree Days 16    
Moisture  
Dew Point 21 °F    
Average Humidity 44    
Maximum Humidity 75    
Minimum Humidity 14    
Precipitation  
Precipitation 0.00 in - - ()
Sea Level Pressure  
Sea Level Pressure 30.23 in    
Wind  
Wind Speed 1 mph (NE)    
Max Wind Speed 8 mph    
Max Gust Speed -    
Visibility 10 miles    
Events      
Averages and records for this station are not official NWS values.
T = Trace of Precipitation, MM = Missing Value Source: NWS Daily Summary

Daily Weather History Graph

Daily Weather History Graph

Search for Another Location

Airport or City:

Trip Planner

Search our weather history database for the weather conditions in past years. The results will help you decide how hot, cold, wet, or windy it might be!

Date:

Astronomy

Oct. 22, 2011 Rise Set
Actual Time 6:41 AM MST 5:44 PM MST
Civil Twilight 6:15 AM MST 6:10 PM MST
Nautical Twilight 5:45 AM MST 6:40 PM MST
Astronomical Twilight 5:15 AM MST 7:09 PM MST
Moon 1:52 AM MST (10/22) 2:56 PM MST (10/22)
Length of Visible Light 11h 54m
Length of Day
11h 02m
Waning Crescent, 22% of the Moon is Illuminated
Oct 22
Waning Crescent
Oct 26
New
Nov 2
First Quarter
Nov 10
Full
Nov 18
Last Quarter

Hourly Weather History & Observations

Time (MST) Temp. Windchill Dew Point Humidity Pressure Visibility Wind Dir Wind Speed Gust Speed Precip Events Conditions
12:54 AM 28.0 °F - 17.1 °F 63% 30.22 in 10.0 mi Calm Calm - N/A   Clear
1:54 AM 27.0 °F - 18.0 °F 69% 30.22 in 9.0 mi Calm Calm - N/A   Clear
2:54 AM 27.0 °F - 18.0 °F 69% 30.22 in 10.0 mi Calm Calm - N/A   Clear
3:54 AM 26.6 °F - 17.6 °F 69% 30.34 in 10.0 mi Calm Calm - N/A   Clear
4:54 AM 26.1 °F - 18.0 °F 71% 30.23 in 10.0 mi Calm Calm - N/A   Clear
5:54 AM 26.1 °F - 18.0 °F 71% 30.30 in 10.0 mi Calm Calm - N/A   Clear
6:54 AM 26.1 °F - 19.0 °F 75% 30.34 in 10.0 mi Calm Calm - N/A   Clear
7:54 AM 37.9 °F - 21.9 °F 53% 30.32 in 10.0 mi Calm Calm - N/A   Clear
8:54 AM 55.0 °F - 27.0 °F 34% 30.26 in 10.0 mi Calm Calm - N/A   Clear
9:54 AM 64.0 °F - 21.0 °F 19% 30.23 in 10.0 mi ESE 3.5 mph - N/A   Clear
10:54 AM 66.9 °F - 21.9 °F 18% 30.22 in 10.0 mi Calm Calm - N/A   Clear
11:54 AM 69.1 °F - 25.0 °F 19% 30.21 in 10.0 mi South 8.1 mph - N/A   Clear
12:54 PM 71.1 °F - 21.9 °F 16% 30.18 in 10.0 mi Variable 5.8 mph - N/A   Clear
1:54 PM 70.0 °F - 21.0 °F 16% 30.17 in 10.0 mi Variable 3.5 mph - N/A   Clear
2:54 PM 72.0 °F - 21.0 °F 15% 30.15 in 10.0 mi NW 6.9 mph - N/A   Clear
3:54 PM 71.1 °F - 19.9 °F 14% 30.16 in 10.0 mi Variable 5.8 mph - N/A   Clear
4:54 PM 68.0 °F - 21.0 °F 17% 30.17 in 10.0 mi North 5.8 mph - N/A   Clear
5:54 PM 51.1 °F - 23.0 °F 33% 30.25 in 10.0 mi Calm Calm - N/A   Clear
6:54 PM 42.1 °F - 21.0 °F 43% 30.30 in 10.0 mi Calm Calm - N/A   Clear
7:54 PM 39.9 °F - 21.9 °F 49% 30.27 in 10.0 mi Calm Calm - N/A   Clear
8:54 PM 37.0 °F - 21.9 °F 54% 30.22 in 10.0 mi Calm Calm - N/A   Clear
9:54 PM 33.1 °F - 19.9 °F 59% 30.19 in 10.0 mi Calm Calm - N/A   Clear
10:54 PM 33.1 °F - 19.9 °F 59% 30.18 in 10.0 mi Calm Calm - N/A   Clear
11:54 PM 32.0 °F 28.7 °F 19.9 °F 61% 30.17 in 9.0 mi ENE 3.5 mph - N/A   Clear